Wind_Speed
13 17 21 24 26 28 29 27 25 22 20 20 21 21 17 10 6 5 8 8 6 4 16 10 11 15 15 8 2 6 8 6 5 5 4 4 3 4 2 4 3 3 1 4 7 5 5 22 13 8 6 16 26 26
16 21 24 26 28 28 27 24 22 20 21 23 23 20 10 6 2 2 4 2 1 9 10 13 7 15 14 11 12 1 1 3 7 3 3 3 2 4 7 3 7 5 4 1 3 2 5 4 7 8 16 18 27 28
19 24 27 27 27 26 23 21 22 23 23 22 18 10 9 3 2 2 1 2 1 3 6 11 14 17 18 17 7 3 3 4 3 4 4 3 3 4 4 3 4 10 19 4 7 4 12 22 17 11 23 27 29 25
23 27 27 26 25 22 21 23 24 24 22 16 9 11 8 12 13 8 6 3 3 0 2 6 13 17 18 15 11 6 7 2 5 5 4 2 2 8 3 3 3 7 7 10 8 7 18 3 5 23 38 39 36 26
26 26 26 24 20 19 23 25 25 23 16 6 10 13 14 12 12 9 9 8 5 2 1 9 9 11 11 16 21 14 9 8 4 3 4 3 4 4 4 3 4 13 6 4 4 20 21 30 39 35 31 37 37 31
25 25 24 20 17 21 24 24 23 19 5 7 10 12 12 9 4 3 3 2 3 2 1 3 9 11 11 13 19 21 16 12 6 5 4 4 4 6 3 2 8 33 36 27 12 20 18 30 34 30 33 27 23 17
24 23 20 16 18 21 23 24 22 13 3 8 9 9 9 8 8 2 2 3 2 3 2 3 4 3 7 9 12 13 16 12 7 4 4 3 8 7 3 4 27 31 31 34 36 27 9 15 17 24 20 17 10 16
21 20 16 15 19 22 23 22 16 8 4 4 6 8 6 3 3 5 8 5 2 2 1 1 3 3 3 5 5 10 8 8 11 5 6 5 7 6 4 21 29 29 31 36 35 27 21 20 23 24 17 14 17 16
19 17 13 13 17 21 23 20 10 4 4 5 2 1 1 3 3 5 5 3 1 1 1 1 1 2 3 3 1 3 5 3 4 2 3 3 2 3 6 18 25 25 32 35 36 39 33 32 26 24 21 12 7 8
18 16 11 11 15 19 21 18 6 4 5 5 6 3 3 3 7 6 2 2 1 1 3 4 4 3 6 7 2 3 1 1 2 1 6 2 2 7 15 23 20 24 31 38 36 39 36 35 33 33 32 26 22 16
16 15 10 9 11 16 17 16 9 7 6 6 6 4 9 8 4 2 2 3 3 2 5 5 9 4 4 3 3 6 2 3 2 1 2 2 2 12 18 19 24 19 22 29 30 30 29 32 30 32 34 36 36 27
15 14 10 7 8 13 14 12 10 8 7 7 8 9 7 3 2 2 3 1 2 3 5 5 5 7 4 5 3 5 2 2 2 4 3 3 3 18 20 17 23 21 16 21 27 26 24 26 28 29 29 33 38 42
14 14 11 7 8 10 13 11 10 10 11 8 2 3 3 0 5 3 4 5 5 7 8 7 5 1 6 8 3 3 3 3 4 4 2 2 14 16 17 18 17 22 21 15 18 25 23 25 30 32 31 31 31 37
14 14 9 6 10 11 11 9 10 12 7 2 4 4 3 2 2 2 3 3 15 21 26 22 3 4 3 2 1 4 2 5 3 3 2 3 13 13 15 17 19 22 21 21 13 14 19 23 26 28 34 37 38 37
12 9 4 10 11 9 3 3 8 12 4 4 3 2 1 4 10 12 15 19 24 26 28 8 2 5 5 4 4 5 4 3 1 3 3 7 6 10 14 15 17 16 19 20 15 9 11 15 19 24 24 28 30 33
11 6 7 13 13 7 5 6 10 9 3 3 3 2 3 7 7 9 12 18 21 22 13 6 4 3 4 3 4 2 3 2 3 3 7 3 7 9 12 15 14 10 16 16 16 5 8 10 12 15 18 20 21 24
11 9 13 14 12 7 5 7 6 4 3 3 1 8 7 6 3 4 8 13 16 17 2 3 4 0 2 2 2 2 2 2 6 11 13 3 9 8 10 13 11 11 10 13 13 19 11 9 9 10 12 14 17 14
11 10 12 14 11 7 7 7 4 4 4 3 5 4 4 3 1 3 5 8 10 14 6 2 4 5 2 2 1 1 3 5 9 9 10 7 8 11 10 6 12 12 4 10 11 11 13 14 11 14 14 14 13 14
10 8 8 9 9 6 2 3 4 4 5 4 5 1 5 2 3 3 1 6 6 8 4 4 4 2 1 2 4 6 3 8 8 8 10 7 13 9 11 7 10 6 4 7 8 7 10 10 11 6 10 12 11 9
10 9 4 7 7 3 3 3 4 4 4 3 5 5 5 5 6 2 6 3 6 4 4 2 2 4 6 5 3 1 3 6 4 6 10 8 11 13 8 8 6 6 6 5 8 12 9 12 17 7 11 13 10 10
9 5 7 5 5 4 4 4 3 4 5 4 10 9 7 10 7 5 5 6 2 2 3 4 4 2 3 4 5 2 1 4 5 8 11 8 5 8 11 9 5 9 11 4 8 12 11 10 10 15 9 12 10 10
7 5 5 2 2 2 4 5 4 8 6 10 14 13 8 6 6 5 5 4 6 5 7 7 3 3 9 11 10 7 2 2 6 10 4 4 7 8 10 8 8 12 11 9 7 9 9 8 9 10 12 13 12 14
4 3 1 2 3 3 5 5 4 4 3 4 4 2 3 7 7 7 3 2 4 8 6 5 3 4 8 7 5 5 2 3 5 5 4 6 7 9 10 11 8 9 13 10 8 5 3 3 7 9 12 13 13 15
4 1 1 2 3 4 5 5 5 0 5 5 5 5 3 4 1 4 4 6 5 4 5 4 1 5 7 8 9 14 7 1 3 6 5 4 8 13 10 11 8 6 11 9 9 7 8 9 7 9 10 11 12 11
2 2 2 5 5 4 4 3 4 2 3 2 2 3 5 6 3 2 1 3 5 5 5 6 2 5 7 11 11 6 6 6 10 6 3 3 2 6 7 8 9 6 5 6 8 8 10 7 8 5 10 10 8 9
1 4 7 4 3 1 3 2 2 2 1 2 3 3 1 3 2 2 2 3 8 7 10 9 4 3 4 3 10 3 2 5 5 1 2 5 4 4 2 3 7 6 7 5 7 8 8 8 7 7 6 5 4 5
2 5 8 7 4 5 6 6 4 3 4 5 0 6 3 3 1 3 6 6 10 7 6 6 5 2 0 6 4 8 4 3 2 1 4 8 4 3 1 2 3 2 3 4 3 1 4 6 4 4 3 4 5 6
7 5 3 5 4 7 6 2 3 3 2 11 9 2 13 6 3 3 4 4 5 4 6 8 7 4 3 2 5 5 6 4 5 6 12 5 4 6 6 5 4 1 2 4 4 6 2 3 6 5 4 4 4 4
6 7 9 12 5 8 7 10 6 2 3 5 7 5 11 5 5 2 7 10 5 2 4 5 3 1 6 11 9 9 15 11 13 12 11 13 8 6 3 3 3 3 2 4 3 2 1 2 4 6 3 3 2 1
11 13 8 6 2 4 10 11 7 16 11 13 11 13 11 12 5 9 11 5 6 4 7 15 16 13 12 9 10 12 12 9 7 6 7 8 6 5 4 2 2 5 3 3 3 4 7 6 7 5 6 3 2 4
19 6 3 7 5 11 5 5 19 17 15 9 9 17 10 8 5 11 9 10 7 8 8 11 11 9 8 7 6 6 9 9 10 9 7 3 2 3 7 6 4 4 2 1 2 4 3 5 5 4 4 4 5 3
2 8 9 4 13 8 4 6 9 13 9 11 13 13 9 5 3 4 9 5 4 5 7 7 7 8 7 7 6 7 9 12 15 17 14 9 7 6 4 6 6 3 3 4 6 4 6 4 5 3 4 3 5 6
6 10 10 6 3 2 3 7 7 7 5 5 6 11 9 5 3 2 4 3 4 4 6 7 7 8 7 8 8 9 10 11 14 17 14 12 12 12 8 7 9 9 9 10 10 8 7 6 6 6 6 6 4 4
Wind_Direction
339 339 339 337 337 334 332 335 337 338 344 338 330 329 333 335 316 279 295 313 286 267 299 308 309 294 290 281 285 319 331 4 346 17 4 338 333 328 60 36 20 43 331 356 340 59 54 350 355 60 308 7 14 7
348 342 339 339 337 334 335 340 342 345 343 333 331 334 341 339 311 236 288 11 292 259 294 338 339 335 340 315 281 179 179 354 15 23 359 299 317 342 2 59 352 57 22 287 25 184 177 20 320 304 8 12 6 356
347 342 341 338 336 337 341 346 347 345 338 334 338 360 354 0 132 134 179 320 243 271 313 340 346 356 359 2 334 133 108 5 341 350 241 292 33 341 7 37 26 5 4 35 322 132 1 315 308 299 346 343 337 347
347 340 337 338 340 343 348 349 348 342 342 345 15 21 56 95 102 96 65 96 125 53 356 309 329 358 2 12 59 98 127 111 339 358 33 51 42 359 329 309 60 8 339 318 287 282 337 10 305 319 315 315 314 323
340 338 338 342 346 350 352 351 346 345 349 30 42 72 85 92 92 83 68 57 64 81 304 310 345 3 19 52 61 68 65 75 53 42 40 35 358 350 327 346 12 1 339 330 280 285 279 274 288 301 299 303 304 312
340 342 343 346 351 353 355 350 349 349 30 54 79 85 81 84 79 44 11 21 63 73 67 14 338 359 8 22 44 47 45 49 61 46 37 42 350 358 30 316 327 338 334 329 306 304 264 269 279 295 295 300 297 309
343 344 344 349 352 356 357 353 354 359 80 80 79 81 79 73 62 67 339 296 158 117 32 329 316 6 29 25 18 19 33 38 54 62 52 14 8 25 14 344 323 347 351 355 358 356 308 311 288 308 301 291 298 306
344 345 346 349 352 355 356 354 358 15 58 97 86 72 70 49 49 20 19 37 134 86 114 302 276 312 305 324 341 359 13 21 27 30 19 22 11 21 28 328 349 9 2 1 3 11 2 355 349 339 316 287 277 278
345 346 346 349 351 352 356 357 359 19 29 24 21 359 344 356 337 335 346 353 314 256 300 279 155 274 251 259 319 37 13 36 13 45 32 24 9 49 262 343 6 14 15 6 13 25 28 20 18 18 20 22 348 323
344 346 345 350 352 354 358 2 8 20 2 346 342 322 302 299 319 308 276 261 322 195 228 246 235 258 202 180 202 109 91 307 39 61 125 65 22 8 12 13 15 18 25 23 21 16 18 27 29 36 36 28 16 9
344 347 342 347 352 355 358 5 7 359 6 14 355 322 313 312 296 273 284 226 157 279 223 243 213 233 241 183 180 196 175 172 77 218 97 26 29 353 15 13 25 27 30 42 34 33 34 35 34 37 37 35 28 18
343 346 336 329 342 348 352 354 3 348 335 331 312 299 298 291 288 285 255 285 152 243 210 220 263 223 184 200 153 184 226 146 80 122 67 10 347 359 12 10 17 27 29 41 45 42 42 41 40 39 35 36 32 29
340 340 332 315 326 337 336 334 331 335 326 298 273 247 238 255 16 325 347 327 343 319 320 309 268 171 187 208 214 162 57 43 92 49 22 251 318 346 8 13 9 19 26 24 39 52 58 52 46 43 37 33 36 37
339 338 333 337 333 328 321 310 313 328 329 263 219 319 155 350 280 255 225 241 342 333 328 326 309 203 196 134 300 75 73 50 62 28 286 258 322 343 6 10 8 14 17 25 22 30 47 52 49 45 46 38 37 37
341 351 4 352 344 333 297 280 311 323 292 271 230 281 25 69 38 25 16 356 351 346 338 332 153 62 22 51 29 46 44 36 100 237 237 288 335 1 4 1 357 360 16 15 29 29 40 50 50 48 43 40 36 36
333 333 337 347 356 322 229 288 303 310 274 265 275 10 130 66 22 24 14 358 2 355 12 54 60 59 36 80 54 31 86 227 275 246 299 316 3 355 1 357 3 357 19 17 27 44 37 48 63 57 51 42 42 38
322 319 325 331 343 324 270 289 302 257 254 260 291 40 121 105 66 42 13 11 7 8 337 70 48 114 83 75 49 65 138 213 8 8 348 309 354 350 338 346 352 6 20 37 38 36 63 75 71 60 61 59 54 50
319 316 319 321 330 331 250 254 255 263 273 234 92 24 35 173 70 71 22 16 23 16 4 360 76 41 49 70 359 241 127 16 356 6 42 26 348 339 336 351 355 2 50 67 69 49 45 43 60 66 54 58 74 73
323 315 311 315 329 329 261 221 227 258 264 172 168 292 1 298 264 251 117 34 57 47 17 31 59 84 230 168 160 129 33 354 343 349 15 4 358 354 354 354 357 38 109 82 60 34 35 45 41 95 38 39 55 78
321 317 302 319 316 308 282 238 233 254 280 268 261 248 291 269 292 246 201 110 118 78 54 64 173 171 171 179 193 221 319 343 18 11 356 348 354 7 21 346 9 69 145 106 57 42 51 59 54 72 41 39 56 64
320 305 314 316 316 256 268 291 269 267 300 281 285 255 221 279 279 199 206 184 106 112 123 165 171 278 253 237 216 231 236 310 316 329 333 344 22 11 22 30 65 86 63 106 70 58 43 49 42 49 59 70 100 66
327 318 322 317 272 275 261 249 265 275 269 263 275 272 225 227 208 204 224 217 166 157 174 185 219 264 239 231 219 225 276 0 333 336 34 81 43 26 9 21 115 78 65 54 106 46 31 27 13 10 42 81 94 61
330 337 307 253 266 273 264 266 254 251 239 262 228 228 84 137 246 290 260 278 156 180 180 151 21 330 308 243 204 248 209 2 61 63 74 54 43 39 71 98 60 53 52 58 49 40 70 39 72 79 89 87 87 90
334 323 272 294 242 251 261 236 222 98 301 340 337 308 80 126 65 332 9 2 10 231 151 150 217 37 80 139 132 138 146 95 45 58 42 39 59 67 99 69 74 60 49 53 55 46 62 129 92 78 78 78 85 77
307 214 236 262 240 249 256 260 72 40 290 313 296 259 154 174 88 67 273 295 225 141 221 272 291 36 90 147 151 160 141 28 18 1 27 79 52 72 58 56 38 24 343 43 54 60 67 71 40 76 74 76 87 71
114 215 200 236 238 180 352 56 326 307 322 292 252 313 178 92 76 177 234 175 56 192 234 239 214 95 98 155 174 161 6 341 315 273 162 178 172 103 71 40 26 46 39 49 63 70 65 61 55 83 76 63 34 31
262 258 229 242 255 102 15 320 304 267 247 219 317 354 327 48 25 272 268 251 218 268 246 243 296 309 174 171 96 336 290 295 302 305 153 158 127 104 104 42 51 106 325 317 301 34 60 72 70 74 74 66 35 43
239 269 219 310 147 195 181 167 229 235 251 116 134 343 342 12 261 293 359 26 66 74 281 283 335 357 89 318 324 299 275 241 111 137 139 137 103 84 74 54 73 111 343 348 316 308 340 106 93 95 91 86 69 40
237 238 281 282 235 195 221 209 210 155 150 133 131 186 188 196 180 28 12 344 146 296 353 331 337 17 128 120 99 83 99 120 113 106 116 119 117 117 120 74 74 24 334 12 52 36 54 152 137 111 83 37 71 244
263 265 226 266 266 244 253 228 146 153 123 118 121 145 145 159 121 36 49 51 1 55 87 115 111 108 102 89 83 81 79 72 63 50 98 102 88 79 73 74 111 95 105 1 120 103 15 14 192 118 95 80 81 99
260 250 10 300 252 305 100 160 138 123 119 108 134 152 149 153 113 47 45 39 130 133 117 93 85 68 64 65 39 49 81 67 34 32 10 334 276 102 100 90 91 118 105 98 80 103 155 113 104 135 111 68 54 45
239 198 203 243 279 287 230 152 123 112 109 122 131 150 151 119 98 76 59 54 85 78 81 74 71 89 56 85 97 91 70 55 36 35 39 50 68 65 73 94 82 70 50 27 60 77 81 91 88 76 97 74 69 46
237 229 247 271 264 300 78 178 138 109 125 149 158 157 140 117 88 69 94 49 61 78 111 117 121 113 88 72 73 59 49 46 44 41 49 56 53 54 73 105 92 75 67 77 86 81 82 84 81 83 89 83 75 58
Height
1554 1551 1547 1543 1539 1534 1529 1525 1521 1517 1513 1510 1506 1503 1499 1498 1498 1498 1498 1497 1498 1496 1492 1489 1485 1481 1475 1473 1471 1470 1468 1465 1461 1459 1455 1451 1447 1443 1442 1448 1444 1442 1444 1442 1431 1423 1437 1438 1425 1434 1450 1441 1432 1428
1552 1549 1545 1540 1535 1530 1526 1522 1518 1515 1511 1507 1502 1499 1496 1496 1495 1495 1495 1496 1496 1497 1493 1487 1483 1479 1474 1471 1470 1468 1471 1470 1468 1467 1464 1461 1455 1446 1444 1450 1448 1449 1451 1450 1454 1449 1444 1442 1442 1442 1442 1436 1435 1433
1550 1546 1542 1536 1532 1527 1523 1519 1516 1512 1508 1504 1499 1496 1494 1493 1494 1495 1495 1496 1495 1494 1492 1487 1483 1480 1476 1470 1467 1469 1471 1470 1470 1471 1470 1465 1459 1461 1459 1454 1449 1448 1447 1454 1452 1441 1441 1436 1438 1434 1432 1432 1435 1435
1547 1544 1539 1534 1529 1525 1521 1518 1514 1509 1505 1501 1498 1496 1495 1494 1494 1496 1496 1495 1495 1495 1494 1490 1484 1483 1479 1472 1467 1467 1468 1469 1467 1466 1467 1467 1467 1468 1463 1461 1460 1468 1464 1460 1448 1442 1438 1431 1435 1437 1428 1429 1429 1434
1546 1542 1536 1531 1527 1523 1519 1516 1512 1507 1503 1501 1499 1498 1497 1498 1498 1498 1497 1496 1495 1497 1495 1490 1487 1484 1481 1477 1472 1470 1469 1468 1468 1469 1470 1473 1473 1472 1468 1463 1461 1463 1461 1456 1449 1446 1449 1442 1437 1438 1436 1424 1424 1423
1543 1539 1534 1529 1525 1522 1518 1514 1510 1506 1503 1502 1501 1500 1500 1500 1499 1498 1498 1498 1496 1495 1494 1494 1490 1487 1482 1479 1477 1473 1472 1471 1471 1473 1476 1479 1479 1476 1475 1474 1467 1462 1455 1448 1438 1433 1435 1431 1430 1429 1425 1425 1422 1419
1540 1536 1533 1528 1525 1521 1517 1513 1509 1506 1504 1503 1503 1502 1502 1501 1500 1500 1500 1498 1496 1495 1495 1494 1491 1489 1487 1483 1479 1477 1476 1476 1475 1478 1481 1481 1477 1477 1478 1475 1466 1461 1451 1442 1436 1428 1425 1424 1424 1425 1426 1424 1421 1416
1538 1534 1531 1528 1524 1520 1517 1513 1509 1507 1505 1504 1504 1504 1503 1502 1501 1500 1499 1497 1496 1496 1496 1495 1491 1489 1488 1486 1484 1482 1481 1480 1481 1482 1483 1483 1483 1486 1485 1482 1471 1466 1454 1446 1439 1432 1428 1423 1417 1415 1416 1416 1418 1423
1536 1533 1530 1527 1523 1519 1516 1512 1510 1508 1507 1506 1505 1504 1503 1502 1501 1500 1498 1497 1497 1500 1497 1496 1494 1491 1488 1488 1486 1486 1487 1487 1488 1489 1489 1490 1493 1493 1489 1481 1474 1466 1461 1450 1440 1434 1429 1423 1420 1415 1410 1415 1415 1411
1534 1531 1529 1526 1523 1519 1516 1512 1510 1509 1507 1506 1505 1505 1502 1502 1500 1500 1498 1497 1497 1497 1496 1494 1490 1488 1487 1486 1487 1488 1489 1489 1487 1492 1492 1494 1492 1492 1489 1484 1478 1473 1466 1457 1448 1441 1435 1432 1429 1423 1419 1415 1411 1412
1532 1529 1527 1525 1523 1519 1516 1513 1511 1509 1508 1507 1506 1505 1503 1501 1500 1499 1498 1497 1495 1496 1492 1488 1486 1485 1484 1484 1484 1486 1486 1488 1494 1493 1494 1494 1495 1494 1490 1486 1482 1478 1474 1468 1463 1456 1449 1444 1438 1431 1426 1419 1412 1403
1530 1527 1525 1524 1522 1519 1516 1514 1512 1510 1509 1509 1507 1506 1503 1501 1500 1500 1496 1493 1493 1491 1485 1483 1479 1479 1481 1482 1482 1484 1484 1485 1489 1491 1497 1500 1496 1493 1490 1487 1483 1479 1475 1470 1466 1462 1456 1450 1446 1441 1433 1425 1417 1408
1527 1525 1523 1522 1520 1518 1515 1513 1512 1510 1508 1506 1506 1505 1504 1502 1503 1496 1499 1498 1495 1487 1483 1480 1478 1477 1478 1479 1479 1480 1480 1486 1487 1498 1504 1501 1496 1492 1490 1486 1482 1478 1475 1471 1467 1464 1459 1455 1450 1443 1437 1431 1424 1415
1525 1523 1521 1520 1518 1516 1513 1512 1510 1508 1506 1505 1504 1505 1503 1503 1503 1500 1498 1495 1490 1484 1478 1476 1477 1475 1475 1477 1476 1480 1488 1491 1499 1502 1505 1498 1494 1492 1489 1485 1482 1478 1474 1471 1467 1465 1461 1457 1452 1448 1442 1439 1433 1426
1523 1521 1520 1519 1516 1513 1512 1511 1509 1508 1506 1504 1502 1504 1500 1500 1498 1497 1494 1491 1486 1481 1475 1472 1474 1475 1477 1480 1483 1487 1495 1502 1502 1505 1498 1493 1493 1491 1488 1485 1482 1479 1475 1471 1468 1465 1463 1460 1456 1452 1449 1444 1441 1436
1521 1520 1519 1517 1514 1512 1511 1510 1509 1508 1505 1503 1500 1499 1499 1498 1498 1496 1494 1490 1486 1481 1475 1475 1477 1481 1486 1488 1491 1494 1502 1513 1502 1495 1493 1492 1491 1490 1487 1484 1482 1479 1476 1473 1469 1466 1464 1463 1460 1456 1453 1451 1447 1444
1519 1518 1517 1514 1512 1510 1510 1510 1508 1506 1503 1501 1499 1498 1498 1497 1497 1495 1493 1490 1487 1482 1481 1479 1484 1486 1487 1491 1493 1495 1500 1499 1496 1494 1491 1491 1489 1488 1486 1483 1481 1479 1477 1474 1472 1470 1466 1464 1462 1460 1457 1455 1453 1450
1516 1516 1514 1511 1510 1508 1508 1507 1507 1504 1501 1499 1499 1498 1497 1496 1495 1494 1493 1491 1488 1485 1483 1484 1484 1489 1493 1494 1498 1497 1496 1495 1493 1491 1489 1489 1488 1486 1484 1482 1480 1477 1476 1474 1473 1471 1469 1467 1465 1463 1461 1459 1456 1456
1514 1513 1512 1510 1508 1507 1506 1506 1506 1502 1497 1496 1495 1495 1494 1494 1493 1491 1491 1490 1488 1488 1487 1488 1491 1496 1497 1495 1495 1494 1493 1492 1491 1490 1489 1488 1486 1484 1482 1481 1479 1476 1475 1474 1473 1472 1470 1468 1466 1465 1463 1461 1459 1458
1511 1510 1509 1508 1507 1506 1506 1503 1502 1500 1496 1495 1494 1493 1493 1492 1492 1491 1490 1489 1488 1488 1490 1492 1493 1492 1492 1492 1492 1493 1493 1492 1490 1489 1488 1487 1485 1483 1481 1479 1477 1475 1474 1474 1473 1472 1471 1469 1468 1466 1465 1462 1461 1460
1509 1508 1507 1506 1506 1506 1505 1502 1500 1498 1495 1493 1491 1490 1490 1489 1489 1488 1488 1488 1488 1489 1490 1491 1491 1491 1490 1489 1490 1491 1492 1492 1491 1489 1487 1485 1484 1482 1481 1479 1478 1476 1475 1474 1473 1472 1472 1471 1470 1467 1466 1464 1464 1462
1507 1506 1506 1506 1505 1504 1503 1501 1499 1496 1494 1489 1488 1487 1485 1485 1486 1486 1486 1484 1484 1484 1486 1487 1489 1488 1488 1488 1487 1488 1489 1490 1490 1488 1486 1485 1482 1481 1480 1479 1478 1476 1475 1474 1474 1473 1473 1472 1471 1468 1466 1465 1465 1465
1506 1506 1505 1505 1505 1503 1501 1497 1496 1493 1492 1486 1484 1483 1484 1490 1490 1488 1484 1482 1481 1482 1483 1486 1487 1487 1485 1486 1486 1487 1488 1489 1489 1488 1486 1485 1483 1481 1480 1479 1478 1477 1476 1476 1475 1473 1472 1472 1471 1470 1469 1468 1466 1466
1505 1505 1505 1504 1503 1500 1497 1493 1492 1491 1489 1487 1485 1483 1484 1488 1489 1487 1488 1492 1488 1489 1489 1488 1486 1485 1484 1484 1485 1486 1488 1488 1487 1487 1486 1485 1483 1482 1481 1480 1480 1479 1478 1477 1475 1474 1472 1472 1471 1470 1469 1469 1468 1468
1507 1506 1506 1502 1499 1497 1493 1488 1489 1489 1488 1488 1486 1481 1479 1481 1484 1489 1491 1489 1488 1490 1493 1492 1490 1487 1484 1485 1485 1486 1486 1485 1485 1486 1485 1484 1484 1483 1482 1481 1480 1480 1478 1477 1476 1474 1473 1472 1472 1471 1471 1470 1470 1469
1506 1502 1501 1497 1494 1494 1491 1492 1492 1493 1493 1492 1488 1485 1485 1485 1488 1491 1489 1488 1489 1489 1488 1489 1488 1486 1485 1484 1484 1485 1485 1484 1483 1483 1483 1482 1482 1482 1481 1481 1480 1480 1479 1477 1476 1475 1474 1473 1473 1472 1472 1472 1471 1470
1504 1497 1494 1493 1492 1492 1494 1493 1492 1492 1488 1485 1483 1486 1484 1484 1493 1490 1487 1485 1484 1485 1487 1487 1486 1485 1484 1484 1485 1484 1483 1482 1481 1481 1482 1482 1481 1480 1480 1480 1480 1480 1479 1477 1476 1475 1475 1474 1473 1472 1472 1472 1471 1471
1496 1492 1491 1490 1490 1488 1488 1491 1491 1489 1486 1487 1497 1500 1496 1496 1493 1490 1487 1486 1486 1486 1485 1485 1485 1484 1484 1484 1483 1482 1481 1481 1481 1481 1482 1483 1482 1480 1480 1480 1479 1479 1478 1477 1476 1475 1474 1474 1474 1473 1473 1472 1472 1471
1490 1488 1488 1484 1485 1485 1486 1484 1483 1485 1485 1484 1489 1493 1489 1490 1490 1487 1486 1486 1486 1486 1485 1484 1484 1484 1483 1483 1483 1483 1482 1483 1483 1484 1483 1483 1482 1482 1480 1479 1478 1478 1477 1476 1475 1475 1474 1474 1474 1473 1473 1473 1473 1472
1485 1485 1485 1482 1482 1478 1474 1475 1476 1479 1481 1482 1484 1488 1489 1489 1489 1489 1487 1486 1486 1484 1484 1484 1485 1484 1484 1485 1485 1485 1485 1485 1485 1485 1484 1483 1482 1481 1479 1478 1478 1477 1476 1476 1475 1475 1476 1474 1474 1475 1475 1474 1474 1474
1481 1481 1484 1483 1478 1474 1471 1471 1475 1478 1480 1481 1483 1486 1488 1489 1489 1489 1488 1486 1486 1486 1486 1486 1487 1488 1487 1486 1486 1486 1486 1487 1487 1485 1484 1482 1480 1479 1479 1478 1478 1477 1477 1476 1476 1476 1476 1475 1476 1475 1476 1476 1475 1474
1478 1477 1476 1477 1474 1474 1473 1473 1476 1480 1484 1485 1486 1486 1488 1489 1490 1491 1492 1489 1488 1487 1488 1488 1487 1487 1488 1488 1488 1488 1488 1488 1487 1485 1483 1481 1481 1480 1480 1479 1478 1478 1478 1477 1477 1476 1477 1477 1477 1477 1477 1477 1476 1475
1474 1474 1473 1473 1472 1471 1471 1470 1471 1483 1485 1486 1486 1486 1487 1489 1491 1492 1493 1491 1489 1488 1487 1487 1488 1489 1489 1489 1489 1489 1490 1489 1487 1485 1484 1483 1482 1481 1480 1479 1479 1479 1479 1479 1479 1479 1478 1478 1478 1478 1478 1478 1478 1477